STARLINK-2514, 48331

Orbit data source: Space-Track

STARLINK-2514, 48331 is a payload satellite owned by SpaceX/Seattle (US) in LEO that was launched on Thu, 29 Apr 2021 UTC via an FALCON 9 launch vehicle from the Air Force Eastern Test Range (AFETR). Payload-class satellites include a variety of spacecraft equipped with specific instruments for various scientific and technological missions. These include communications satellites like Starlink; space stations such as the ISS; scientific satellites like the Hubble; Earth observation satellites from companies like Planet Labs, Umbra, and HawkEye 360; GPS; miniature CubeSats for education and research; and military/defense satellites.

Loading next visibility...
Identifier
48331, 2021-036BH
Orbit
LEO
Country
Flag of USUS
Related business
Manufacturer
SpaceX/Seattle
Mission
Operational Commercial Communications
Bus & Motor
STARLINK, Unknown motor
Mass
260 kg wet, ~248 kg dry
Launch date (UTC)
2021-04-29 (5 years ago)
Launch vehicle
FALCON 9
Launch site
Air Force Eastern Test Range (AFETR)
Object type
Payload
Rocket body
Debris
Shape & HBR
Box + 1 Pan, 10.1 m
Radar Cross Section
13.562 m², Large (>1 m²)

Expand to show TLE details & history
Last TLE update: 22 hours ago

TLE from 22 hours ago
0 STARLINK-2514
1 48331U 21036BH  26036.76489830  .00002877  00000-0  21189-3 0  9991
2 48331  53.0540 244.9326 0001256  92.0923 268.0210 15.06408318263227
Epoch: 2026-02-05T18:21Z
TLE epoch observation values (Epoch: 2026-02-05T18:21:27.213Z)
Latitude
0.00001°
Longitude
-166.34322°
Altitude
548.095 km
Speed
7.589 km/s
True Right ascension
16h 19m 43s
True Declination
0° 00' 00"
Sunlit
Object was in daylight at epoch
Visualization orbit readout
Latitude
Unknown
Longitude
Unknown
Altitude
Unknown
Speed
Unknown
Apparent Right ascension
Unknown
Apparent Declination
Unknown
Sunlit
N/A
Visualization observer readout
Local Sidereal Time
18:00:11
Azimuth
Unknown
Elevation
Unknown
Doppler factor
Unknown
Orbital elements
Apogee altitude
548.327 km
Perigee altitude
546.587 km
Semi-major axis
6,925.594 km
Eccentricity
0.00013
Inclination
53.054°
RAAN
244.9326°
Arg. of periapsis
92.0923°
True anomaly
268.00662°
Mean anomaly
268.021°
Eccentric anomaly
268.01381°
Mean motion
3.7658 °/min
Orbital period
95.6 mins
BSTAR
0.00021189
Loading maneuver chart data...
Computing Atmospheric mass density...
Loading historical data...
Loading historical data...
Loading historical data...
Loading historical data...
Loading historical data...
Loading historical data...
Loading historical data...

Documentation

Showing up to 5 results
|